^^
Grace C. Lehan Memorial Weather Station Historical Data
Daily Summary for August 25, 2019 Units:  Metric    English   Both
Daily Weekly Monthly Yearly Custom
  High: Low: Average:
Temperature: 22.9 °C 15.1 °C 19.2 °C
Dew Point: 15.4 °C 10.1 °C 13.6 °C
Humidity: 88% 53% 71%
Wind Speed: 16.1km/h 0km/h 2.1km/h
Wind Gust: 27.4km/h - -
Wind- - ENE
Pressure: 1025.6 hPa 1022.9 hPa -
Precipitation: 0 mm    
Historical Graphs
 
 
Tabular Data for August 25, 2019
Time Temperature Dew Point Pressure Wind Wind Speed Wind Gust Humidity Rainfall Rate (Hourly) solar
00:00 19.4 °C 14.1 °C 1024.6 hPa ENE 1.6 km/h 1.6 km/h 71% 0 mm 0.00 W/m2
00:05 19.4 °C 14 °C 1024.6 hPa Calm   8 km/h 71% 0 mm 0.00 W/m2
00:10 19.3 °C 14 °C 1024.6 hPa Calm   8 km/h 71% 0 mm 0.00 W/m2
00:15 19.3 °C 13.9 °C 1024.9 hPa Calm   8 km/h 71% 0 mm 0.00 W/m2
00:20 19.2 °C 13.8 °C 1024.9 hPa East 1.6 km/h 8 km/h 71% 0 mm 0.00 W/m2
00:25 19.2 °C 13.8 °C 1024.9 hPa East 3.2 km/h 8 km/h 71% 0 mm 0.00 W/m2
00:30 19.2 °C 13.8 °C 1024.6 hPa Calm   8 km/h 71% 0 mm 0.00 W/m2
00:35 19.1 °C 13.7 °C 1024.9 hPa East 3.2 km/h 4.8 km/h 71% 0 mm 0.00 W/m2
00:40 19.1 °C 13.7 °C 1024.6 hPa Calm   4.8 km/h 71% 0 mm 0.00 W/m2
00:45 19 °C 13.6 °C 1024.6 hPa East 1.6 km/h 4.8 km/h 71% 0 mm 0.00 W/m2
00:50 19 °C 13.8 °C 1024.6 hPa Calm   4.8 km/h 72% 0 mm 0.00 W/m2
00:55 18.9 °C 13.8 °C 1024.6 hPa Calm   4.8 km/h 72% 0 mm 0.00 W/m2
01:00 18.9 °C 13.7 °C 1024.6 hPa NE 1.6 km/h 4.8 km/h 72% 0 mm 0.00 W/m2
01:05 18.8 °C 13.7 °C 1024.6 hPa NE 1.6 km/h 3.2 km/h 72% 0 mm 0.00 W/m2
01:10 18.8 °C 13.8 °C 1024.6 hPa Calm   8 km/h 73% 0 mm 0.00 W/m2
01:15 18.7 °C 13.8 °C 1024.6 hPa Calm   8 km/h 73% 0 mm 0.00 W/m2
01:20 18.7 °C 13.7 °C 1024.6 hPa Calm   8 km/h 73% 0 mm 0.00 W/m2
01:25 18.6 °C 13.7 °C 1024.6 hPa Calm   8 km/h 73% 0 mm 0.00 W/m2
01:30 18.5 °C 13.8 °C 1024.6 hPa Calm   8 km/h 74% 0 mm 0.00 W/m2
01:35 18.4 °C 13.7 °C 1024.6 hPa Calm   4.8 km/h 74% 0 mm 0.00 W/m2
01:40 18.4 °C 13.7 °C 1024.6 hPa Calm   4.8 km/h 74% 0 mm 0.00 W/m2
01:45 18.3 °C 13.8 °C 1024.6 hPa Calm   4.8 km/h 75% 0 mm 0.00 W/m2
01:50 18.3 °C 13.8 °C 1024.6 hPa Calm   4.8 km/h 75% 0 mm 0.00 W/m2
01:55 18.2 °C 13.7 °C 1024.6 hPa Calm   4.8 km/h 75% 0 mm 0.00 W/m2
02:00 18.1 °C 13.8 °C 1024.6 hPa Calm   4.8 km/h 76% 0 mm 0.00 W/m2
02:05 18.1 °C 13.8 °C 1024.3 hPa Calm     76% 0 mm 0.00 W/m2
02:10 17.9 °C 13.7 °C 1024.3 hPa Calm     76% 0 mm 0.00 W/m2
02:15 17.8 °C 13.8 °C 1024.3 hPa Calm     77% 0 mm 0.00 W/m2
02:20 17.8 °C 13.7 °C 1024.3 hPa Calm     77% 0 mm 0.00 W/m2
02:25 17.7 °C 13.6 °C 1024.3 hPa Calm     77% 0 mm 0.00 W/m2
02:30 17.6 °C 13.7 °C 1024.3 hPa Calm     78% 0 mm 0.00 W/m2
02:35 17.5 °C 13.8 °C 1024.3 hPa Calm     79% 0 mm 0.00 W/m2
02:40 17.4 °C 13.7 °C 1024.3 hPa Calm     79% 0 mm 0.00 W/m2
02:45 17.3 °C 13.6 °C 1024.3 hPa Calm     79% 0 mm 0.00 W/m2
02:50 17.2 °C 13.7 °C 1024.3 hPa Calm     80% 0 mm 0.00 W/m2
02:55 17.1 °C 13.6 °C 1024.3 hPa Calm     80% 0 mm 0.00 W/m2
03:00 17 °C 13.5 °C 1024.3 hPa Calm     80% 0 mm 0.00 W/m2
03:05 16.9 °C 13.7 °C 1024.3 hPa Calm     81% 0 mm 0.00 W/m2
03:10 16.9 °C 13.6 °C 1024.3 hPa Calm     81% 0 mm 0.00 W/m2
03:15 16.8 °C 13.7 °C 1024.3 hPa Calm     82% 0 mm 0.00 W/m2
03:20 16.7 °C 13.6 °C 1024.3 hPa Calm     82% 0 mm 0.00 W/m2
03:25 16.7 °C 13.6 °C 1024.3 hPa Calm     82% 0 mm 0.00 W/m2
03:30 16.6 °C 13.7 °C 1024.3 hPa Calm     83% 0 mm 0.00 W/m2
03:35 16.5 °C 13.6 °C 1024.3 hPa Calm     83% 0 mm 0.00 W/m2
03:40 16.4 °C 13.6 °C 1024.3 hPa Calm     83% 0 mm 0.00 W/m2
03:45 16.4 °C 13.7 °C 1024.6 hPa Calm     84% 0 mm 0.00 W/m2
03:50 16.3 °C 13.6 °C 1024.3 hPa Calm     84% 0 mm 0.00 W/m2
03:55 16.2 °C 13.5 °C 1024.6 hPa Calm     84% 0 mm 0.00 W/m2
04:00 16.2 °C 13.6 °C 1024.6 hPa Calm     85% 0 mm 0.00 W/m2
04:05 16.1 °C 13.6 °C 1024.6 hPa Calm     85% 0 mm 0.00 W/m2
04:10 16.1 °C 13.5 °C 1024.6 hPa Calm     85% 0 mm 0.00 W/m2
04:15 16 °C 13.5 °C 1024.6 hPa Calm     85% 0 mm 0.00 W/m2
04:20 15.9 °C 13.6 °C 1024.6 hPa Calm     86% 0 mm 0.00 W/m2
04:25 15.9 °C 13.6 °C 1024.6 hPa Calm     86% 0 mm 0.00 W/m2
04:30 15.8 °C 13.7 °C 1024.6 hPa Calm   3.2 km/h 87% 0 mm 0.00 W/m2
04:35 15.8 °C 13.7 °C 1024.6 hPa Calm     87% 0 mm 0.00 W/m2
04:40 15.8 °C 13.7 °C 1024.6 hPa Calm     87% 0 mm 0.00 W/m2
04:45 15.9 °C 13.9 °C 1024.3 hPa Calm     88% 0 mm 0.00 W/m2
04:50 15.9 °C 13.9 °C 1024.6 hPa Calm     88% 0 mm 0.00 W/m2
04:55 15.9 °C 14 °C 1024.3 hPa Calm     88% 0 mm 0.00 W/m2
05:00 15.9 °C 14 °C 1024.3 hPa Calm     88% 0 mm 0.00 W/m2
05:05 15.9 °C 14 °C 1024.3 hPa Calm     88% 0 mm 0.00 W/m2
05:10 15.9 °C 14 °C 1024.6 hPa Calm     88% 0 mm 0.00 W/m2
05:15 16 °C 14 °C 1024.6 hPa Calm   1.6 km/h 88% 0 mm 0.00 W/m2
05:20 16 °C 14 °C 1024.6 hPa Calm   1.6 km/h 88% 0 mm 0.00 W/m2
05:25 15.9 °C 14 °C 1024.3 hPa Calm   1.6 km/h 88% 0 mm 0.00 W/m2
05:30 15.9 °C 14 °C 1024.3 hPa Calm   1.6 km/h 88% 0 mm 0.00 W/m2
05:35 15.9 °C 14 °C 1024.3 hPa Calm   4.8 km/h 88% 0 mm 0.00 W/m2
05:40 15.9 °C 14 °C 1024.3 hPa Calm   4.8 km/h 88% 0 mm 0.00 W/m2
05:45 15.9 °C 14 °C 1024.3 hPa Calm   4.8 km/h 88% 0 mm 0.00 W/m2
05:50 15.9 °C 14 °C 1024.6 hPa Calm   4.8 km/h 88% 0 mm 0.00 W/m2
05:55 16 °C 14 °C 1024.6 hPa Calm   4.8 km/h 88% 0 mm 0.00 W/m2
06:00 16 °C 14 °C 1024.6 hPa Calm   6.4 km/h 88% 0 mm 0.00 W/m2
06:05 16.1 °C 14.1 °C 1024.6 hPa Calm   3.2 km/h 88% 0 mm 0.00 W/m2
06:10 16.1 °C 14.1 °C 1024.6 hPa Calm   3.2 km/h 88% 0 mm 0.00 W/m2
06:15 16.1 °C 14.1 °C 1024.6 hPa Calm   3.2 km/h 88% 0 mm 0.00 W/m2
06:20 16.1 °C 14.1 °C 1024.6 hPa Calm   3.2 km/h 88% 0 mm 5.00 W/m2
06:25 16.2 °C 14.2 °C 1024.6 hPa Calm   8 km/h 88% 0 mm 9.00 W/m2
06:30 16.2 °C 14.2 °C 1024.6 hPa Calm   8 km/h 88% 0 mm 14.00 W/m2
06:35 16.2 °C 14.1 °C 1024.6 hPa Calm     87% 0 mm 18.00 W/m2
06:40 16.3 °C 14.1 °C 1024.6 hPa Calm     87% 0 mm 25.00 W/m2
06:45 16.3 °C 14.3 °C 1024.6 hPa Calm   3.2 km/h 88% 0 mm 26.00 W/m2
06:50 16.3 °C 14.2 °C 1024.6 hPa Calm   3.2 km/h 87% 0 mm 35.00 W/m2
06:55 16.4 °C 14.2 °C 1024.9 hPa Calm   3.2 km/h 87% 0 mm 74.00 W/m2
07:00 16.6 °C 14.4 °C 1024.9 hPa Calm   3.2 km/h 87% 0 mm 83.00 W/m2
07:05 16.8 °C 14.6 °C 1024.9 hPa Calm     87% 0 mm 72.00 W/m2
07:10 17.1 °C 14.7 °C 1024.9 hPa Calm   4.8 km/h 86% 0 mm 86.00 W/m2
07:15 17.3 °C 14.8 °C 1024.9 hPa Calm   6.4 km/h 85% 0 mm 69.00 W/m2
07:20 17.6 °C 14.8 °C 1024.9 hPa Calm   6.4 km/h 84% 0 mm 70.00 W/m2
07:25 17.7 °C 14.8 °C 1025.3 hPa Calm   6.4 km/h 83% 0 mm 79.00 W/m2
07:30 17.8 °C 14.7 °C 1024.9 hPa Calm   8 km/h 82% 0 mm 102.00 W/m2
07:35 17.8 °C 14.7 °C 1025.3 hPa Calm   4.8 km/h 82% 0 mm 134.00 W/m2
07:40 17.8 °C 14.7 °C 1025.3 hPa ENE 4.8 km/h 8 km/h 82% 0 mm 132.00 W/m2
07:45 17.9 °C 14.8 °C 1025.3 hPa ENE 3.2 km/h 16.1 km/h 82% 0 mm 128.00 W/m2
07:50 18 °C 14.9 °C 1025.3 hPa Calm   16.1 km/h 82% 0 mm 97.00 W/m2
07:55 18.1 °C 14.8 °C 1025.3 hPa NE 1.6 km/h 16.1 km/h 81% 0 mm 97.00 W/m2
08:00 18.1 °C 14.8 °C 1025.3 hPa ENE 4.8 km/h 16.1 km/h 81% 0 mm 91.00 W/m2
08:05 18.1 °C 14.9 °C 1025.3 hPa Calm   19.3 km/h 82% 0 mm 81.00 W/m2
08:10 18.1 °C 15 °C 1025.3 hPa Calm   19.3 km/h 82% 0 mm 76.00 W/m2
08:15 18.1 °C 14.8 °C 1025.3 hPa ENE 3.2 km/h 19.3 km/h 81% 0 mm 54.00 W/m2
08:20 18.1 °C 14.8 °C 1025.3 hPa ENE 1.6 km/h 19.3 km/h 81% 0 mm 46.00 W/m2
08:25 18.1 °C 14.9 °C 1025.3 hPa Calm   19.3 km/h 82% 0 mm 51.00 W/m2
08:30 18.1 °C 14.9 °C 1025.3 hPa ENE 4.8 km/h 19.3 km/h 82% 0 mm 63.00 W/m2
08:35 18.1 °C 15 °C 1025.3 hPa Calm   9.7 km/h 82% 0 mm 79.00 W/m2
08:40 18.2 °C 14.9 °C 1025.3 hPa ENE 9.7 km/h 14.5 km/h 81% 0 mm 86.00 W/m2
08:45 18.3 °C 14.8 °C 1025.3 hPa ENE 1.6 km/h 17.7 km/h 80% 0 mm 84.00 W/m2
08:50 18.6 °C 15 °C 1025.3 hPa Calm   17.7 km/h 80% 0 mm 104.00 W/m2
08:55 18.7 °C 15 °C 1025.6 hPa NE 1.6 km/h 17.7 km/h 79% 0 mm 62.00 W/m2
09:00 18.9 °C 15 °C 1025.6 hPa NE 3.2 km/h 19.3 km/h 78% 0 mm 113.00 W/m2
09:05 19 °C 15.1 °C 1025.6 hPa ENE 6.4 km/h 16.1 km/h 78% 0 mm 91.00 W/m2
09:10 18.9 °C 14.8 °C 1025.6 hPa East 6.4 km/h 16.1 km/h 77% 0 mm 88.00 W/m2
09:15 18.9 °C 15 °C 1025.6 hPa East 4.8 km/h 16.1 km/h 78% 0 mm 111.00 W/m2
09:20 19 °C 15.1 °C 1025.6 hPa Calm   17.7 km/h 78% 0 mm 95.00 W/m2
09:25 19.1 °C 15.2 °C 1025.6 hPa Calm   17.7 km/h 78% 0 mm 123.00 W/m2
09:30 19.3 °C 15.4 °C 1025.3 hPa Calm   17.7 km/h 78% 0 mm 120.00 W/m2
09:35 19.4 °C 15.3 °C 1025.3 hPa Calm   14.5 km/h 77% 0 mm 118.00 W/m2
09:40 19.6 °C 15.2 °C 1025.3 hPa ENE 11.3 km/h 20.9 km/h 76% 0 mm 93.00 W/m2
09:45 19.4 °C 14.9 °C 1025.3 hPa ENE 1.6 km/h 20.9 km/h 75% 0 mm 149.00 W/m2
09:50 19.4 °C 14.9 °C 1025.3 hPa SE 4.8 km/h 20.9 km/h 75% 0 mm 91.00 W/m2
09:55 19.5 °C 15 °C 1025.3 hPa East 4.8 km/h 20.9 km/h 75% 0 mm 163.00 W/m2
10:00 19.7 °C 14.7 °C 1025.3 hPa ENE 8 km/h 20.9 km/h 73% 0 mm 197.00 W/m2
10:05 19.9 °C 15.2 °C 1025.3 hPa Calm   14.5 km/h 74% 0 mm 102.00 W/m2
10:10 20.1 °C 15.1 °C 1025.3 hPa NE 9.7 km/h 20.9 km/h 73% 0 mm 60.00 W/m2
10:15 19.9 °C 14.1 °C 1025.3 hPa NE 8 km/h 24.1 km/h 69% 0 mm 246.00 W/m2
10:20 19.9 °C 14.1 °C 1025.3 hPa ENE 1.6 km/h 24.1 km/h 69% 0 mm 90.00 W/m2
10:25 20 °C 14.4 °C 1024.9 hPa ENE 6.4 km/h 24.1 km/h 70% 0 mm 84.00 W/m2
10:30 20.2 °C 14.3 °C 1025.3 hPa Calm   24.1 km/h 69% 0 mm 104.00 W/m2
10:35 20.3 °C 14.2 °C 1024.9 hPa ENE 3.2 km/h 16.1 km/h 68% 0 mm 116.00 W/m2
10:40 20.4 °C 14.3 °C 1024.9 hPa East 4.8 km/h 16.1 km/h 68% 0 mm 130.00 W/m2
10:45 20.5 °C 14.2 °C 1024.9 hPa ENE 6.4 km/h 27.4 km/h 67% 0 mm 155.00 W/m2
10:50 20.7 °C 14.2 °C 1025.3 hPa East 1.6 km/h 27.4 km/h 66% 0 mm 156.00 W/m2
10:55 20.9 °C 13.8 °C 1024.9 hPa ENE 3.2 km/h 27.4 km/h 64% 0 mm 165.00 W/m2
11:00 20.9 °C 13.8 °C 1024.9 hPa East 4.8 km/h 27.4 km/h 64% 0 mm 95.00 W/m2
11:05 20.9 °C 13.8 °C 1024.9 hPa East 6.4 km/h 20.9 km/h 64% 0 mm 125.00 W/m2
11:10 21.1 °C 14.2 °C 1024.9 hPa East 4.8 km/h 20.9 km/h 65% 0 mm 199.00 W/m2
11:15 21.2 °C 13.9 °C 1024.9 hPa North 6.4 km/h 20.9 km/h 63% 0 mm 232.00 W/m2
11:20 21.3 °C 13.2 °C 1025.3 hPa ESE 4.8 km/h 20.9 km/h 60% 0 mm 148.00 W/m2
11:25 21.2 °C 13.1 °C 1024.9 hPa NE 8 km/h 20.9 km/h 60% 0 mm 86.00 W/m2
11:30 21.1 °C 13 °C 1024.9 hPa East 9.7 km/h 22.5 km/h 60% 0 mm 833.00 W/m2
11:35 21.2 °C 12.8 °C 1024.9 hPa East 1.6 km/h 16.1 km/h 59% 0 mm 297.00 W/m2
11:40 21.4 °C 13.3 °C 1024.9 hPa East 3.2 km/h 16.1 km/h 60% 0 mm 179.00 W/m2
11:45 21.6 °C 13.5 °C 1024.9 hPa NE 6.4 km/h 17.7 km/h 60% 0 mm 244.00 W/m2
11:50 21.8 °C 14 °C 1024.9 hPa ENE 4.8 km/h 17.7 km/h 61% 0 mm 591.00 W/m2
11:55 22 °C 13.9 °C 1024.9 hPa NE 16.1 km/h 17.7 km/h 60% 0 mm 311.00 W/m2
12:00 21.9 °C 13.5 °C 1024.9 hPa Calm     59% 0 mm 202.00 W/m2
12:05 21.8 °C 13.2 °C 1024.9 hPa ENE 9.7 km/h 19.3 km/h 58% 0 mm 944.00 W/m2
12:10 21.9 °C 13.3 °C 1024.9 hPa NE 3.2 km/h 20.9 km/h 58% 0 mm 158.00 W/m2
12:15 22 °C 13.4 °C 1024.9 hPa Calm   20.9 km/h 58% 0 mm 185.00 W/m2
12:20 21.9 °C 13.3 °C 1024.9 hPa Calm   20.9 km/h 58% 0 mm 149.00 W/m2
12:25 22 °C 13.6 °C 1024.9 hPa Calm   20.9 km/h 59% 0 mm 262.00 W/m2
12:30 22.1 °C 13.2 °C 1024.6 hPa ENE 1.6 km/h 20.9 km/h 57% 0 mm 262.00 W/m2
12:35 22.1 °C 13.2 °C 1024.6 hPa East 4.8 km/h 14.5 km/h 57% 0 mm 297.00 W/m2
12:40 22.1 °C 12.9 °C 1024.6 hPa ENE 1.6 km/h 16.1 km/h 56% 0 mm 853.00 W/m2
12:45 22.2 °C 13 °C 1024.6 hPa NE 3.2 km/h 16.1 km/h 56% 0 mm 668.00 W/m2
12:50 22.3 °C 13.1 °C 1024.6 hPa East 3.2 km/h 16.1 km/h 56% 0 mm 914.00 W/m2
12:55 22.3 °C 13.1 °C 1024.6 hPa NE 1.6 km/h 16.1 km/h 56% 0 mm 116.00 W/m2
13:00 22.2 °C 12.7 °C 1024.6 hPa East 8 km/h 17.7 km/h 55% 0 mm 197.00 W/m2
13:05 22.1 °C 12.6 °C 1024.6 hPa ENE 8 km/h 16.1 km/h 55% 0 mm 241.00 W/m2
13:10 22.2 °C 13.3 °C 1024.6 hPa NE 3.2 km/h 16.1 km/h 57% 0 mm 489.00 W/m2
13:15 22.3 °C 12.9 °C 1024.6 hPa ENE 4.8 km/h 16.1 km/h 55% 0 mm 283.00 W/m2
13:20 22.4 °C 12.7 °C 1024.3 hPa Calm   17.7 km/h 54% 0 mm 406.00 W/m2
13:25 22.6 °C 13.1 °C 1024.3 hPa ENE 4.8 km/h 22.5 km/h 55% 0 mm 415.00 W/m2
13:30 22.7 °C 12.6 °C 1024.3 hPa NE 1.6 km/h 22.5 km/h 53% 0 mm 246.00 W/m2
13:35 22.6 °C 12.8 °C 1024.3 hPa Calm   20.9 km/h 54% 0 mm 232.00 W/m2
13:40 22.5 °C 12.5 °C 1024.3 hPa Calm   20.9 km/h 53% 0 mm 186.00 W/m2
13:45 22.3 °C 12.9 °C 1024.3 hPa NE 6.4 km/h 20.9 km/h 55% 0 mm 195.00 W/m2
13:50 22.2 °C 13 °C 1024.3 hPa NE 1.6 km/h 20.9 km/h 56% 0 mm 213.00 W/m2
13:55 22.2 °C 13.3 °C 1024.3 hPa ENE 4.8 km/h 20.9 km/h 57% 0 mm 213.00 W/m2
14:00 22.1 °C 13.2 °C 1024.3 hPa ENE 1.6 km/h 20.9 km/h 57% 0 mm 190.00 W/m2
14:05 22.1 °C 13.7 °C 1024.3 hPa Calm   9.7 km/h 59% 0 mm 148.00 W/m2
14:10 22.1 °C 13.9 °C 1024.3 hPa NNE 6.4 km/h 14.5 km/h 60% 0 mm 118.00 W/m2
14:15 21.9 °C 13.6 °C 1024.3 hPa ENE 1.6 km/h 16.1 km/h 59% 0 mm 118.00 W/m2
14:20 21.8 °C 13.9 °C 1024.3 hPa Calm   16.1 km/h 61% 0 mm 125.00 W/m2
14:25 21.7 °C 14.1 °C 1024.3 hPa Calm   16.1 km/h 62% 0 mm 146.00 W/m2
14:30 21.6 °C 14 °C 1024.3 hPa ENE 6.4 km/h 16.1 km/h 62% 0 mm 109.00 W/m2
14:35 21.6 °C 14 °C 1024.3 hPa Calm   6.4 km/h 62% 0 mm 74.00 W/m2
14:40 21.5 °C 14.2 °C 1024.3 hPa Calm   6.4 km/h 63% 0 mm 81.00 W/m2
14:45 21.4 °C 14.4 °C 1024.3 hPa East 1.6 km/h 19.3 km/h 64% 0 mm 83.00 W/m2
14:50 21.4 °C 14.4 °C 1023.9 hPa ENE 6.4 km/h 19.3 km/h 64% 0 mm 155.00 W/m2
14:55 21.5 °C 14.7 °C 1023.9 hPa East 1.6 km/h 19.3 km/h 65% 0 mm 272.00 W/m2
15:00 21.7 °C 14.6 °C 1023.9 hPa Calm   19.3 km/h 64% 0 mm 475.00 W/m2
15:05 21.9 °C 14.3 °C 1023.9 hPa East 6.4 km/h 16.1 km/h 62% 0 mm 559.00 W/m2
15:10 22.2 °C 14.4 °C 1023.9 hPa East 4.8 km/h 17.7 km/h 61% 0 mm 860.00 W/m2
15:15 22.4 °C 14.8 °C 1023.9 hPa ENE 3.2 km/h 17.7 km/h 62% 0 mm 526.00 W/m2
15:20 22.5 °C 14.6 °C 1023.9 hPa NNE 11.3 km/h 17.7 km/h 61% 0 mm 824.00 W/m2
15:25 22.7 °C 14.6 °C 1023.9 hPa East 6.4 km/h 17.7 km/h 60% 0 mm 909.00 W/m2
15:30 22.9 °C 14.7 °C 1023.9 hPa NE 16.1 km/h 19.3 km/h 60% 0 mm 772.00 W/m2
15:35 22.8 °C 14.4 °C 1023.9 hPa NE 6.4 km/h 17.7 km/h 59% 0 mm 171.00 W/m2
15:40 22.6 °C 14.5 °C 1023.9 hPa East 8 km/h 17.7 km/h 60% 0 mm 141.00 W/m2
15:45 22.3 °C 14.5 °C 1023.9 hPa NE 3.2 km/h 17.7 km/h 61% 0 mm 130.00 W/m2
15:50 22.2 °C 14.6 °C 1023.9 hPa Calm   17.7 km/h 62% 0 mm 766.00 W/m2
15:55 22.4 °C 14.5 °C 1023.9 hPa Calm   17.7 km/h 61% 0 mm 113.00 W/m2
16:00 22.4 °C 14.6 °C 1023.9 hPa ENE 4.8 km/h 4.8 km/h 61% 0 mm 123.00 W/m2
16:05 22.3 °C 14.7 °C 1023.6 hPa East 1.6 km/h 17.7 km/h 62% 0 mm 125.00 W/m2
16:10 22.1 °C 14.4 °C 1023.6 hPa ESE 6.4 km/h 17.7 km/h 62% 0 mm 132.00 W/m2
16:15 21.9 °C 14.3 °C 1023.6 hPa East 1.6 km/h 17.7 km/h 62% 0 mm 151.00 W/m2
16:20 21.9 °C 14.3 °C 1023.6 hPa Calm   17.7 km/h 62% 0 mm 128.00 W/m2
16:25 21.8 °C 14.2 °C 1023.6 hPa NE 3.2 km/h 20.9 km/h 62% 0 mm 84.00 W/m2
16:30 21.7 °C 14.1 °C 1023.6 hPa ENE 3.2 km/h 20.9 km/h 62% 0 mm 65.00 W/m2
16:35 21.5 °C 14.2 °C 1023.6 hPa Calm   8 km/h 63% 0 mm 56.00 W/m2
16:40 21.4 °C 14.4 °C 1023.2 hPa ENE 4.8 km/h 8 km/h 64% 0 mm 54.00 W/m2
16:45 21.5 °C 14.2 °C 1023.2 hPa Calm   9.7 km/h 63% 0 mm 51.00 W/m2
16:50 21.6 °C 13.5 °C 1023.2 hPa ENE 1.6 km/h 16.1 km/h 60% 0 mm 51.00 W/m2
16:55 21.7 °C 13.4 °C 1023.2 hPa ENE 4.8 km/h 16.1 km/h 59% 0 mm 53.00 W/m2
17:00 21.8 °C 13.4 °C 1023.2 hPa East 1.6 km/h 16.1 km/h 59% 0 mm 49.00 W/m2
17:05 21.9 °C 13.8 °C 1023.2 hPa ENE 4.8 km/h 16.1 km/h 60% 0 mm 47.00 W/m2
17:10 22 °C 13.9 °C 1023.2 hPa ENE 1.6 km/h 16.1 km/h 60% 0 mm 46.00 W/m2
17:15 22 °C 13.6 °C 1023.2 hPa East 3.2 km/h 16.1 km/h 59% 0 mm 44.00 W/m2
17:20 22 °C 13.6 °C 1023.2 hPa NE 9.7 km/h 16.1 km/h 59% 0 mm 42.00 W/m2
17:25 21.9 °C 13.8 °C 1022.9 hPa Calm   16.1 km/h 60% 0 mm 42.00 W/m2
17:30 21.9 °C 13.6 °C 1022.9 hPa NE 1.6 km/h 16.1 km/h 59% 0 mm 40.00 W/m2
17:35 21.9 °C 13.8 °C 1022.9 hPa NE 3.2 km/h 9.7 km/h 60% 0 mm 40.00 W/m2
17:40 21.9 °C 13.8 °C 1022.9 hPa NE 8 km/h 9.7 km/h 60% 0 mm 40.00 W/m2
17:45 21.9 °C 13.5 °C 1022.9 hPa ENE 1.6 km/h 9.7 km/h 59% 0 mm 39.00 W/m2
17:50 21.9 °C 12.8 °C 1022.9 hPa East 6.4 km/h 14.5 km/h 56% 0 mm 37.00 W/m2
17:55 21.9 °C 13 °C 1022.9 hPa Calm   14.5 km/h 57% 0 mm 37.00 W/m2
18:00 21.9 °C 13.3 °C 1022.9 hPa NE 6.4 km/h 14.5 km/h 58% 0 mm 35.00 W/m2
18:05 21.9 °C 13.5 °C 1022.9 hPa East 4.8 km/h 9.7 km/h 59% 0 mm 35.00 W/m2
18:10 21.9 °C 13.5 °C 1022.9 hPa NE 1.6 km/h 16.1 km/h 59% 0 mm 39.00 W/m2
18:15 21.8 °C 13.2 °C 1022.9 hPa East 6.4 km/h 17.7 km/h 58% 0 mm 33.00 W/m2
18:20 21.8 °C 13.4 °C 1022.9 hPa NE 11.3 km/h 17.7 km/h 59% 0 mm 30.00 W/m2
18:25 21.7 °C 13.1 °C 1022.9 hPa NE 4.8 km/h 20.9 km/h 58% 0 mm 30.00 W/m2
18:30 21.6 °C 13.3 °C 1022.9 hPa ENE 1.6 km/h 20.9 km/h 59% 0 mm 28.00 W/m2
18:35 21.6 °C 13.2 °C 1022.9 hPa East 4.8 km/h 14.5 km/h 59% 0 mm 25.00 W/m2
18:40 21.4 °C 12.8 °C 1022.9 hPa NNE 14.5 km/h 17.7 km/h 58% 0 mm 23.00 W/m2
18:45 21.3 °C 13 °C 1022.9 hPa Calm   17.7 km/h 59% 0 mm 21.00 W/m2
18:50 21.3 °C 13 °C 1023.2 hPa East 6.4 km/h 17.7 km/h 59% 0 mm 19.00 W/m2
18:55 21.2 °C 12.8 °C 1023.2 hPa ENE 6.4 km/h 17.7 km/h 59% 0 mm 19.00 W/m2
19:00 21.1 °C 13 °C 1023.2 hPa East 8 km/h 17.7 km/h 60% 0 mm 21.00 W/m2
19:05 20.9 °C 12.9 °C 1023.2 hPa East 1.6 km/h 11.3 km/h 60% 0 mm 18.00 W/m2
19:10 20.9 °C 13.1 °C 1023.2 hPa Calm   11.3 km/h 61% 0 mm 12.00 W/m2
19:15 20.8 °C 13.3 °C 1023.2 hPa Calm   11.3 km/h 62% 0 mm 9.00 W/m2
19:20 20.7 °C 13.2 °C 1023.2 hPa ENE 1.6 km/h 16.1 km/h 62% 0 mm 7.00 W/m2
19:25 20.6 °C 13.3 °C 1023.2 hPa NE 1.6 km/h 16.1 km/h 63% 0 mm 5.00 W/m2
19:30 20.4 °C 13.1 °C 1023.2 hPa Calm   16.1 km/h 63% 0 mm 0.00 W/m2
19:35 20.3 °C 13.3 °C 1023.6 hPa ENE 3.2 km/h 8 km/h 64% 0 mm 0.00 W/m2
19:40 20.1 °C 13.3 °C 1023.6 hPa Calm   8 km/h 65% 0 mm 0.00 W/m2
19:45 20 °C 13.5 °C 1023.6 hPa Calm   8 km/h 66% 0 mm 0.00 W/m2
19:50 19.8 °C 13.5 °C 1023.6 hPa East 4.8 km/h 8 km/h 67% 0 mm 0.00 W/m2
19:55 19.7 °C 13.1 °C 1023.6 hPa ENE 1.6 km/h 14.5 km/h 66% 0 mm 0.00 W/m2
20:00 19.5 °C 13.2 °C 1023.6 hPa Calm   14.5 km/h 67% 0 mm 0.00 W/m2
20:05 19.4 °C 13.3 °C 1023.6 hPa ENE 3.2 km/h 11.3 km/h 68% 0 mm 0.00 W/m2
20:10 19.3 °C 13.2 °C 1023.6 hPa Calm   11.3 km/h 68% 0 mm 0.00 W/m2
20:15 19.2 °C 13.1 °C 1023.6 hPa East 6.4 km/h 11.3 km/h 68% 0 mm 0.00 W/m2
20:20 19.1 °C 13.2 °C 1023.6 hPa ENE 1.6 km/h 11.3 km/h 69% 0 mm 0.00 W/m2
20:25 19 °C 13.2 °C 1023.9 hPa Calm   11.3 km/h 69% 0 mm 0.00 W/m2
20:30 18.9 °C 13.1 °C 1024.3 hPa Calm   11.3 km/h 69% 0 mm 0.00 W/m2
20:35 18.8 °C 13.2 °C 1024.3 hPa ENE 3.2 km/h 3.2 km/h 70% 0 mm 0.00 W/m2
20:40 18.7 °C 13.3 °C 1024.3 hPa Calm   4.8 km/h 71% 0 mm 0.00 W/m2
20:45 18.6 °C 13.2 °C 1024.3 hPa NE 6.4 km/h 6.4 km/h 71% 0 mm 0.00 W/m2
20:50 18.4 °C 13 °C 1024.3 hPa Calm   9.7 km/h 71% 0 mm 0.00 W/m2
20:55 18.3 °C 13.2 °C 1024.3 hPa ENE 3.2 km/h 9.7 km/h 72% 0 mm 0.00 W/m2
21:00 18.3 °C 13.2 °C 1024.3 hPa Calm   9.7 km/h 72% 0 mm 0.00 W/m2
21:05 18.2 °C 13.1 °C 1024.6 hPa Calm   6.4 km/h 72% 0 mm 0.00 W/m2
21:10 18.1 °C 13.2 °C 1024.3 hPa ENE 3.2 km/h 17.7 km/h 73% 0 mm 0.00 W/m2
21:15 18 °C 13.1 °C 1024.3 hPa ESE 1.6 km/h 17.7 km/h 73% 0 mm 0.00 W/m2
21:20 17.9 °C 13 °C 1024.3 hPa NE 4.8 km/h 17.7 km/h 73% 0 mm 0.00 W/m2
21:25 17.8 °C 12.9 °C 1024.3 hPa Calm   17.7 km/h 73% 0 mm 0.00 W/m2
21:30 17.7 °C 12.8 °C 1024.3 hPa Calm   17.7 km/h 73% 0 mm 0.00 W/m2
21:35 17.6 °C 12.9 °C 1024.6 hPa Calm   4.8 km/h 74% 0 mm 0.00 W/m2
21:40 17.5 °C 13 °C 1024.6 hPa Calm   4.8 km/h 75% 0 mm 0.00 W/m2
21:45 17.4 °C 13.1 °C 1024.6 hPa Calm   8 km/h 76% 0 mm 0.00 W/m2
21:50 17.3 °C 13 °C 1024.6 hPa Calm   8 km/h 76% 0 mm 0.00 W/m2
21:55 17.2 °C 13.2 °C 1024.6 hPa ENE 3.2 km/h 8 km/h 77% 0 mm 0.00 W/m2
22:00 17.1 °C 12.8 °C 1024.3 hPa Calm   8 km/h 76% 0 mm 0.00 W/m2
22:05 16.9 °C 12.5 °C 1024.3 hPa ENE 3.2 km/h 8 km/h 75% 0 mm 0.00 W/m2
22:10 16.8 °C 12.2 °C 1024.3 hPa Calm   8 km/h 74% 0 mm 0.00 W/m2
22:15 16.7 °C 11.9 °C 1024.3 hPa Calm   11.3 km/h 73% 0 mm 0.00 W/m2
22:20 16.6 °C 11.8 °C 1024.3 hPa Calm   11.3 km/h 73% 0 mm 0.00 W/m2
22:25 16.5 °C 11.4 °C 1024.6 hPa Calm   11.3 km/h 72% 0 mm 0.00 W/m2
22:30 16.4 °C 11.1 °C 1024.3 hPa Calm   11.3 km/h 71% 0 mm 0.00 W/m2
22:35 16.3 °C 10.9 °C 1024.6 hPa Calm   8 km/h 70% 0 mm 0.00 W/m2
22:40 16.2 °C 10.8 °C 1024.6 hPa NE 4.8 km/h 8 km/h 70% 0 mm 0.00 W/m2
22:45 16.2 °C 10.5 °C 1024.6 hPa Calm   8 km/h 69% 0 mm 0.00 W/m2
22:50 16.1 °C 10.4 °C 1024.6 hPa NE 4.8 km/h 8 km/h 69% 0 mm 0.00 W/m2
22:55 16.1 °C 10.6 °C 1024.3 hPa Calm   8 km/h 70% 0 mm 0.00 W/m2
23:00 16 °C 10.5 °C 1024.6 hPa Calm   8 km/h 70% 0 mm 0.00 W/m2
23:05 15.9 °C 10.7 °C 1024.6 hPa Calm     71% 0 mm 0.00 W/m2
23:10 15.8 °C 10.6 °C 1024.6 hPa Calm     71% 0 mm 0.00 W/m2
23:15 15.8 °C 10.7 °C 1024.3 hPa Calm     72% 0 mm 0.00 W/m2
23:20 15.7 °C 10.6 °C 1024.3 hPa Calm     72% 0 mm 0.00 W/m2
23:25 15.6 °C 10.5 °C 1024.3 hPa Calm     72% 0 mm 0.00 W/m2
23:30 15.4 °C 10.4 °C 1024.3 hPa Calm   3.2 km/h 72% 0 mm 0.00 W/m2
23:35 15.4 °C 10.4 °C 1024.3 hPa Calm   1.6 km/h 72% 0 mm 0.00 W/m2
23:40 15.3 °C 10.3 °C 1023.9 hPa Calm   1.6 km/h 72% 0 mm 0.00 W/m2
23:45 15.2 °C 10.2 °C 1023.9 hPa Calm   3.2 km/h 72% 0 mm 0.00 W/m2
23:50 15.1 °C 10.1 °C 1023.9 hPa Calm   3.2 km/h 72% 0 mm 0.00 W/m2
23:55 15.1 °C 10.1 °C 1023.9 hPa Calm   3.2 km/h 72% 0 mm 0.00 W/m2
Grace C. Lehan Memorial Weather Station
Compliments of Weather Underground - 4 mb